CAPE
0 0 0 0 0 0 0 0 0 0 0 0 0 0 0 0 0 0 0 0 0 0 0 0 0 0 696 1201 1656 1678 1373 1436 796 334 372 171 310 153 45 41 11 15 16 7
0 0 0 0 0 0 0 0 0 0 0 0 0 0 0 0 0 0 0 0 0 0 0 0 0 8 745 1148 1579 1567 1250 1135 787 526 300 140 50 86 83 64 247 207 109 143
0 0 0 0 0 0 0 0 0 0 0 0 0 0 0 0 0 0 0 0 0 0 0 0 0 0 701 994 1498 1209 1022 1094 508 461 213 159 91 24 37 109 232 121 75 39
0 0 0 0 0 0 0 0 0 0 0 0 0 0 0 0 0 0 0 0 0 0 0 0 0 0 520 882 1342 970 965 1000 377 299 193 112 33 15 80 66 23 86 8 18
0 0 0 0 0 0 0 0 0 1 1 3 0 1 0 0 0 0 0 0 0 0 0 0 0 0 342 789 1312 912 600 655 298 143 247 73 58 45 100 40 28 6 6 5
0 1 11 16 4 0 5 0 0 7 15 16 0 0 0 1 4 2 5 3 0 1 27 1 0 0 223 738 1210 649 284 182 187 226 261 81 70 57 43 41 8 9 8 10
0 0 0 19 39 34 16 1 0 39 30 0 0 3 0 4 13 6 7 4 31 203 400 323 124 181 362 900 745 126 120 73 120 466 163 27 54 41 18 28 5 4 6 5
26 4 0 9 4 8 9 0 3 10 30 27 17 1 50 20 33 19 6 1 1 68 405 457 158 349 457 851 91 16 35 74 49 279 57 7 14 24 19 24 22 8 11 4
35 7 0 6 5 3 36 58 28 32 15 29 2 17 29 15 30 1 0 0 1 6 16 554 166 483 518 668 20 41 60 49 12 58 5 4 12 14 11 8 20 33 51 47
7 15 24 56 45 51 68 58 50 72 32 32 35 29 44 39 20 2 1 0 0 0 3 93 252 412 603 366 51 199 418 29 9 3 6 5 8 12 11 11 25 26 30 27
36 43 47 72 58 69 100 72 63 45 39 56 30 43 103 10 2 0 0 0 0 0 3 2 318 321 322 110 182 158 98 4 3 8 7 1 5 7 11 12 10 21 28 20
92 73 49 60 34 87 60 71 75 103 50 39 50 45 153 54 0 0 0 0 0 0 1 3 2 107 93 40 10 25 20 7 11 8 4 5 18 14 12 8 9 29 33 31
12 106 87 77 86 63 79 99 69 6 6 14 44 61 76 49 55 10 0 0 0 0 0 2 2 2 1 9 9 12 10 10 8 6 7 12 16 9 8 5 30 22 15 22
17 75 113 73 32 105 86 33 45 26 41 44 32 10 10 2 2 7 1 0 0 0 1 2 2 2 2 1 1 1 3 9 10 9 10 12 8 7 6 1 26 3 2 5
25 154 68 3 0 1 4 0 0 1 0 0 0 0 0 1 1 4 0 0 0 0 1 3 4 2 1 2 2 2 2 1 1 1 0 1 0 0 3 7 18 31 30 24
4 124 23 6 3 0 0 0 0 0 0 0 1 11 24 20 6 0 1 0 0 1 2 2 3 1 1 1 1 1 1 2 1 1 0 0 0 0 0 0 2 1 1 0
61 18 5 4 1 0 0 0 0 0 11 16 25 39 25 45 34 2 5 1 1 1 1 3 6 4 2 1 1 2 1 1 1 0 0 0 0 0 1 0 0 0 1 1
56 37 17 5 0 0 0 0 0 0 14 12 6 54 5 8 8 7 5 9 4 3 1 2 4 3 2 1 1 1 1 2 2 1 0 0 2 2 1 0 1 1 3 3
44 86 33 4 0 0 0 0 0 0 12 7 3 5 2 1 1 11 15 11 11 5 3 3 4 1 1 0 0 0 1 2 0 4 6 1 1 2 2 1 1 1 2 4
34 101 72 14 1 0 6 0 3 5 10 11 8 9 2 2 10 4 12 16 12 6 6 5 4 1 0 1 1 0 1 1 4 1 0 4 1 1 3 3 2 3 2 3
90 65 56 29 13 3 0 0 0 5 5 19 6 5 3 3 3 7 5 6 9 8 7 7 3 5 6 0 0 0 1 4 2 1 0 2 1 2 3 3 3 3 4 5
50 70 42 31 27 7 2 1 5 10 14 4 4 5 7 6 5 6 8 8 8 6 1 1 3 4 2 3 3 1 2 3 3 2 2 2 3 2 3 5 5 5 6 8
117 29 130 45 79 6 1 4 4 6 6 7 7 8 6 6 8 7 6 7 8 5 2 1 1 3 4 2 0 2 6 5 4 3 5 1 0 2 4 5 6 6 7 9
52 2 220 91 16 9 7 4 3 6 7 6 8 9 9 6 6 7 9 8 5 1 0 0 0 1 4 5 3 3 2 1 1 3 3 2 2 2 2 3 3 7 9 9
11 6 4 19 11 6 4 8 8 8 7 5 7 8 5 5 6 6 3 1 1 0 1 1 2 3 5 4 4 3 2 1 2 4 5 5 7 6 10 12 15 12 18 9
13 6 8 16 6 10 6 3 6 6 4 8 6 7 9 5 6 5 5 5 3 1 1 1 2 3 6 6 7 6 6 7 7 9 9 9 9 10 9 10 12 9 10 8
CIN
0 0 0 0 0 0 0 0 0 0 0 0 0 0 0 0 0 0 0 0 0 0 0 0 0 0 -130 -137 -151 -152 -194 -145 -212 -247 -187 -197 -96 -125 -145 -105 0 -0 -19 0
0 0 0 0 0 0 0 0 0 0 0 0 0 0 0 0 0 0 0 0 0 0 0 0 0 -151 -144 -151 -172 -186 -231 -215 -196 -193 -206 -199 -172 -139 -79 -34 0 -0 -13 0
0 0 0 0 0 0 0 0 0 0 0 0 0 0 0 0 0 0 0 0 0 0 0 0 0 0 -146 -166 -196 -267 -293 -208 -259 -191 -223 -171 -165 -85 -91 -26 0 -3 -3 -6
0 0 0 0 0 0 0 0 0 0 0 0 0 0 0 0 0 0 0 0 0 0 0 0 0 0 -127 -175 -201 -302 -267 -190 -278 -241 -213 -182 -205 -184 -118 -73 -3 -2 -6 -7
0 0 0 0 0 0 0 0 0 0 0 0 0 0 0 0 0 0 0 0 0 0 0 0 0 0 -95 -174 -209 -293 -315 -232 -294 -297 -169 -189 -210 -236 -113 -32 -0 0 0 0
0 -3 -31 -38 -101 0 -25 0 0 0 0 0 0 0 0 0 0 0 0 0 0 -15 -24 -22 0 0 -129 -183 -205 -338 -397 -371 -319 -234 -157 -185 -222 -226 -182 0 0 0 0 0
0 0 0 -32 -9 -18 0 0 -6 -9 0 0 0 0 0 0 0 0 -4 0 -33 -45 -64 -105 -127 -162 -183 -212 -315 -522 -474 -441 -335 -150 -163 -253 -217 -246 -32 0 0 0 0 0
0 0 0 -40 -37 -9 -3 0 -11 0 -0 0 -0 0 0 0 0 -1 0 0 -12 -144 -122 -110 -181 -228 -249 -210 -513 -558 -511 -428 -379 -166 -206 0 -58 -28 0 -0 -2 -2 -2 0
-0 -0 0 -33 -47 -22 -17 -4 -16 -1 0 0 0 0 -8 -0 0 0 0 0 0 0 -30 -148 -227 -211 -238 -244 -569 -519 -467 -436 -357 -194 0 0 0 0 -0 -0 0 0 0 0
-7 -0 -4 -12 -12 -0 0 0 -7 -5 0 0 -0 0 0 -0 -21 0 0 0 0 0 0 -112 -249 -226 -204 -299 -468 -352 -244 -448 -85 0 0 0 0 0 -0 -0 0 0 0 0
-18 -0 -1 -9 -6 0 0 -0 -1 -3 0 0 0 0 -4 -17 0 0 0 0 0 0 0 0 -199 -237 -254 -355 -329 -332 -328 -492 0 0 0 0 -0 0 0 -0 0 0 0 0
-3 -0 0 -1 -0 -1 -1 -0 0 0 0 -0 0 0 0 -1 0 0 0 0 0 0 0 0 0 -248 -299 -336 -22 -378 -388 -427 -74 0 0 0 0 0 -0 0 -2 0 0 0
0 -0 0 0 0 -2 0 0 -0 -1 -0 -2 0 -0 -2 -0 0 -0 0 0 0 0 0 0 0 0 0 0 0 0 -77 0 0 -0 0 0 0 -0 -2 -0 0 -0 -0 0
0 -1 0 0 -3 -0 -1 -8 -1 0 0 -0 0 -1 -0 0 0 -5 0 0 0 0 0 0 0 0 0 0 0 0 -0 -0 0 0 0 0 -1 -1 -0 0 0 -8 -6 -2
-7 0 -4 -0 0 -6 -5 0 0 0 0 0 -0 0 0 0 0 -22 0 0 0 0 0 0 0 0 0 0 0 0 0 0 0 0 0 0 0 -0 0 -0 -0 -0 -0 -0
0 -0 -0 -0 0 0 0 0 0 0 0 0 0 0 0 0 0 0 0 0 0 0 0 0 0 0 0 0 0 0 0 0 0 0 0 0 0 0 0 0 0 0 0 0
0 -0 -0 -0 -0 0 0 0 0 0 -0 0 0 0 0 0 -1 0 0 0 0 0 0 0 0 0 0 0 0 0 0 0 0 0 0 0 0 0 0 0 0 0 0 0
0 0 -0 -0 0 0 0 0 0 0 0 0 -4 0 0 0 0 0 0 0 0 0 0 0 0 0 0 0 -0 -0 0 0 0 0 0 0 0 0 0 0 0 0 0 0
-11 0 0 0 0 0 0 0 0 0 -0 0 0 0 0 0 0 0 0 0 0 0 0 0 0 0 -0 -0 0 0 -0 0 0 0 0 0 0 0 0 0 0 0 0 0
-8 0 -0 0 0 0 -1 0 -4 -2 0 0 0 0 0 0 0 0 0 0 0 0 0 0 0 0 -0 0 0 0 0 0 0 0 0 0 0 0 0 0 0 0 0 0
-2 -0 -0 -0 0 -0 0 0 0 0 0 0 0 0 0 -2 0 0 0 0 0 0 0 0 0 0 0 -0 0 0 0 0 0 0 0 0 0 0 0 0 0 0 0 0
-0 -0 -3 -13 0 0 0 -3 -1 0 -1 0 0 0 0 0 0 0 0 0 0 0 -0 0 0 0 -0 -0 0 0 0 0 0 -0 0 0 0 0 0 0 0 0 0 0
-0 -6 0 0 -1 0 0 0 0 0 0 0 0 0 0 0 0 0 0 0 0 0 0 0 0 0 0 0 0 0 0 0 0 0 0 0 0 0 0 0 0 0 0 0
-5 -0 0 0 0 0 0 0 0 0 0 0 0 0 0 0 0 0 0 0 0 0 0 0 0 0 0 0 0 0 0 0 0 0 0 0 0 0 0 0 0 0 0 0
-9 0 0 0 0 0 0 0 0 0 0 0 0 0 0 0 0 0 0 0 0 0 0 0 0 0 0 0 0 0 0 0 0 0 0 0 0 0 0 0 0 0 0 0
0 0 0 0 0 0 0 -0 0 0 0 0 0 0 0 0 0 0 0 0 0 0 0 0 0 0 0 0 0 0 0 0 0 0 0 0 0 0 0 0 0 0 0 0
Wind_Speed
16 12 15 17 15 16 13 15 17 17 16 20 22 22 19 18 20 20 18 18 17 16 15 16 10 9 13 15 18 20 19 18 12 11 10 8 8 7 5 7 10 11 10 10
9 17 17 13 13 17 18 18 18 16 13 12 18 24 23 24 22 21 21 19 18 16 18 17 14 10 14 17 19 19 19 19 15 11 10 7 7 5 7 8 11 12 13 15
16 1 4 12 14 15 16 15 14 15 15 18 20 23 10 5 14 18 21 23 20 18 18 17 17 14 14 17 20 20 20 20 17 14 9 8 6 4 6 7 7 6 7 11
14 15 12 10 14 15 13 9 11 11 10 8 4 9 11 10 8 10 14 15 18 20 18 18 17 17 17 17 18 19 20 19 17 17 13 14 9 8 8 6 5 5 7 9
5 7 9 15 17 10 7 4 7 9 11 13 15 10 5 6 4 10 6 11 15 18 19 17 16 17 16 16 18 18 19 19 18 16 14 11 11 7 5 5 8 6 4 4
14 1 5 8 7 15 2 5 9 10 9 9 15 10 3 6 11 11 13 12 10 9 11 14 13 12 14 16 17 15 17 19 19 16 15 13 13 10 7 6 5 6 4 5
14 16 12 7 8 7 10 5 3 7 6 8 4 8 10 9 9 10 12 13 13 13 11 11 8 11 14 19 18 15 18 19 18 17 14 13 13 11 10 9 5 7 5 3
6 7 14 13 18 9 12 12 6 6 5 2 4 8 6 4 7 12 12 14 16 18 16 12 7 9 13 17 16 16 19 19 18 16 14 11 12 8 8 8 7 6 5 6
5 2 2 4 5 12 8 9 4 5 11 8 9 6 7 6 11 14 17 18 18 19 20 16 6 9 12 15 15 15 19 18 17 15 13 11 11 12 9 9 8 6 6 8
6 8 4 7 6 6 8 6 5 5 5 6 6 8 3 7 11 15 17 18 17 17 19 19 8 6 9 13 14 15 19 18 18 16 13 10 11 11 10 8 9 8 7 8
12 10 6 8 11 11 7 5 6 1 5 5 4 2 5 6 8 12 13 12 13 15 17 17 9 4 7 11 12 11 14 16 16 15 14 13 11 10 9 8 9 9 9 8
8 7 12 12 3 7 6 6 10 5 5 3 6 3 7 5 4 7 5 9 10 12 15 15 15 4 9 11 12 11 13 13 14 13 12 12 11 10 8 8 9 8 9 9
9 9 11 7 6 5 8 5 2 1 1 6 4 2 5 2 5 3 4 7 9 12 15 15 14 14 9 8 9 11 10 12 12 12 10 10 9 9 8 7 6 6 6 7
11 9 12 9 4 6 8 10 8 5 4 3 8 14 13 10 11 2 3 8 9 11 13 14 14 13 12 12 12 9 7 9 10 11 10 10 9 8 7 6 6 8 6 5
8 5 2 0 2 2 4 5 6 9 8 7 10 16 16 14 12 2 7 7 10 12 13 14 13 12 13 13 12 12 11 11 11 11 11 10 10 9 6 2 4 4 6 5
8 4 3 5 4 1 5 6 7 9 9 11 12 14 6 14 5 8 8 7 11 11 11 12 12 13 13 14 13 12 12 12 11 13 12 10 11 11 11 10 11 11 11 12
6 2 5 2 5 6 7 6 1 1 2 7 11 16 15 5 12 9 8 9 10 11 12 11 12 12 12 13 11 12 12 12 12 13 12 12 12 12 11 11 13 13 12 11
6 10 2 2 5 3 8 1 6 4 8 14 13 14 11 12 12 14 12 7 8 10 11 11 10 11 11 10 11 10 12 13 12 13 13 13 13 12 12 13 14 14 12 13
13 10 1 2 1 5 6 6 6 7 4 12 15 14 3 9 9 11 12 11 8 10 8 10 8 9 10 10 10 11 13 11 14 14 14 12 13 13 11 15 14 12 12 12
10 10 6 1 3 1 8 8 11 6 6 16 17 16 17 8 3 4 8 9 8 10 9 10 8 10 10 10 11 15 13 14 15 13 13 10 10 15 15 13 13 12 12 13
7 6 8 5 3 2 8 15 13 6 8 17 14 13 15 3 6 13 11 9 7 8 11 9 9 10 10 11 14 18 17 17 16 13 16 12 13 14 13 12 11 12 12 12
5 5 4 4 4 4 13 4 7 8 7 8 9 9 12 14 13 13 12 10 10 13 14 13 13 14 13 13 13 16 17 14 13 13 13 13 13 10 11 13 11 12 13 13
2 6 4 4 5 8 8 7 6 8 5 5 7 10 10 10 12 11 12 11 11 13 13 12 12 13 14 15 14 16 13 11 12 13 13 13 13 13 13 12 11 10 12 11
3 4 2 6 8 10 8 6 7 7 9 10 11 13 12 11 10 9 9 10 11 11 13 11 12 14 15 14 14 14 12 11 12 14 14 13 14 14 14 11 11 11 11 9
4 7 5 2 8 8 10 8 6 9 10 11 11 11 12 10 9 9 11 12 12 13 12 12 12 13 14 13 14 13 11 10 11 12 12 12 11 14 14 14 11 11 13 12
4 4 3 3 4 3 5 6 8 11 10 10 11 11 11 10 10 10 11 11 11 12 12 12 13 12 12 13 14 13 11 9 9 10 9 8 8 8 9 10 12 22 21 22
Wind_Direction
192 212 217 226 222 253 264 268 274 280 281 281 278 277 276 273 263 253 247 254 244 242 244 244 229 204 191 189 187 183 180 178 164 180 171 180 192 183 190 198 206 207 197 200
186 223 234 232 236 238 250 260 270 282 272 276 283 284 283 265 256 253 248 244 248 254 248 240 230 201 196 188 187 183 182 174 179 183 174 177 183 196 205 212 214 215 212 211
232 193 217 221 226 232 236 251 265 277 292 277 276 282 253 259 249 251 248 249 245 251 252 245 241 211 194 195 188 184 181 179 177 178 161 177 167 175 202 222 221 229 228 219
249 246 224 227 238 221 238 231 253 270 281 278 10 291 299 288 301 260 253 251 242 238 242 243 248 210 201 198 185 182 181 177 175 167 170 184 192 190 205 206 191 204 230 227
217 221 221 235 237 206 246 183 245 263 268 292 269 252 253 241 314 4 345 309 246 247 248 255 238 225 201 187 179 182 175 175 172 170 181 181 194 194 199 174 167 168 152 169
264 290 255 252 246 227 200 218 242 253 258 250 247 233 255 38 358 338 351 341 353 328 302 289 265 227 194 181 170 167 171 173 169 177 180 186 187 186 190 162 164 159 164 159
237 233 223 210 205 184 211 213 236 200 205 253 133 227 280 20 9 359 355 351 341 338 332 321 258 206 185 176 155 161 167 167 166 183 176 186 191 180 192 160 151 148 152 143
243 203 210 199 226 238 214 214 246 266 240 245 175 240 106 70 30 14 4 358 353 346 340 334 266 204 182 173 153 165 167 161 164 178 169 176 198 169 185 180 173 168 165 165
278 229 154 209 214 198 167 217 291 268 239 261 246 203 181 58 34 16 13 7 354 350 342 345 296 182 180 161 162 166 166 161 162 170 163 175 187 163 176 182 189 182 184 164
265 261 192 151 170 205 255 136 186 207 238 236 199 247 128 34 23 8 2 2 354 352 346 341 5 170 163 147 167 174 172 162 162 168 164 173 182 178 169 179 173 175 183 174
267 245 171 172 206 199 171 190 222 274 282 298 302 144 105 78 18 339 357 358 355 358 347 343 341 111 148 154 165 156 156 161 163 166 167 172 175 174 161 171 183 180 177 183
303 272 236 222 121 270 233 197 212 246 156 301 312 318 113 147 313 347 10 11 1 11 355 350 358 81 122 141 143 151 151 157 156 161 167 168 167 166 172 190 196 174 171 177
355 249 218 204 201 209 222 177 169 333 11 250 282 71 125 158 329 42 34 35 22 17 6 359 5 31 35 122 133 142 148 151 151 152 159 153 156 166 175 190 188 184 178 181
288 239 246 258 16 150 188 190 199 206 222 278 265 291 299 328 309 94 51 63 49 36 20 5 7 25 26 42 43 66 115 133 143 144 151 145 148 158 170 188 206 172 190 200
262 193 304 202 99 137 154 195 211 229 243 264 302 301 315 315 326 20 118 82 69 47 32 13 8 19 26 32 43 43 45 60 85 89 82 75 67 63 82 149 225 177 182 196
283 115 64 348 191 173 264 246 259 253 259 268 275 283 343 314 352 137 122 98 84 68 49 27 13 26 30 32 36 42 41 57 66 77 73 67 70 71 65 57 54 52 55 52
285 173 143 160 242 324 258 172 128 238 278 321 315 322 314 334 32 102 85 92 94 88 68 41 26 26 33 38 37 45 48 53 59 70 64 62 63 63 66 69 66 61 56 57
286 300 299 96 280 201 83 84 80 337 63 24 2 358 22 61 67 57 62 57 84 89 83 63 38 36 34 41 45 56 56 53 55 60 65 64 63 62 62 71 71 67 64 62
227 278 350 304 298 328 122 65 6 349 61 16 355 351 43 121 99 44 39 41 31 64 52 71 63 50 46 50 52 61 59 61 60 55 46 50 67 67 65 68 72 71 72 66
220 229 276 180 307 319 66 354 342 304 223 12 355 340 320 186 223 92 53 49 46 53 51 54 49 65 58 62 69 66 61 56 60 50 56 54 57 68 65 62 74 79 77 76
167 197 225 225 260 287 7 335 314 234 0 348 360 347 326 156 67 113 99 79 60 63 68 63 58 63 48 44 63 62 56 54 53 53 62 53 62 72 77 80 80 85 84 82
176 168 184 218 230 237 10 4 11 351 314 8 33 51 76 85 90 93 88 78 66 70 69 65 62 52 53 65 62 68 61 57 61 64 71 69 64 70 74 78 76 80 84 82
88 6 343 314 44 68 41 35 10 340 25 38 77 82 83 89 85 87 86 78 73 66 61 59 60 64 55 51 56 67 69 70 67 69 70 70 71 68 63 73 76 73 74 75
84 0 254 280 77 82 61 58 38 34 60 67 82 92 86 87 83 82 88 80 72 67 64 59 60 59 56 47 52 60 66 70 75 76 73 65 62 65 65 61 51 55 57 61
349 320 337 268 89 109 65 42 49 67 72 77 77 87 95 94 88 87 79 74 69 69 67 64 61 58 57 55 53 44 55 72 77 76 76 74 75 75 68 54 51 62 52 47
3 3 326 12 21 15 59 51 68 73 70 75 83 77 76 88 94 94 83 76 75 72 69 66 64 65 61 56 52 47 44 57 72 76 71 69 75 80 83 83 76 61 63 64